Вернуться в каталог

TITAN 3C TRANSTAGE DEB

АктивенMEO
NORAD 33512·DEBRIS·🇺🇸 United States

Запущен Sep 26, 1968 с Cape Canaveral Space Force Station

Loading…

Ближайшие Пролёты (ближайшие 24 часа)

TLE

СвежийSource: Space-Track

Эпоха: Sep 13, 2026, 14:09 UTC

1 33512U 68081N   26256.58992257  .00000049  00000-0  00000-0 0  9998
2 33512   2.2070  46.9171 0115973 300.0871  59.2719  1.00903734 74528

Отслеживайте TITAN 3C TRANSTAGE DEB в реальном времени с AllMySat

Download on the App Store